(480314) = 2010 CK88 = 2012 TK295 = 2015 HJ175

Discovered at Mount Lemmon on 2010-02-14 by Mt. Lemmon Survey.

Orbit

Orbit type: Main Belt

Note: WebGL enabled browser required.

epoch2023-02-25.0
epoch JD2460000.5
perihelion date2020-05-24.18891
perihelion JD2458993.68891
argument of perihelion (°)30.47121
ascending node (°)267.91065
inclination (°)2.55940
eccentricity0.1545015
perihelion distance (AU)2.2258023
Tisserand w.r.t. Jupiter3.4
ΔV w.r.t. Earth (km/sec)9.4
semimajor axis (AU)2.6325326
mean anomaly (°)232.32246
mean daily motion (°/day)0.23075080
aphelion distance (AU)3.039
period (years)4.27
P-vector [x]0.47484020
P-vector [y]-0.81619057
P-vector [z]-0.32918041
Q-vector [x]0.87893990
Q-vector [y]0.42084047
Q-vector [z]0.22440576
absolute magnitude17.26
phase slope0.15
uncertainty0
referenceMPEC 2023-F215
observations used230
oppositions12
arc length (days)7152
first opposition used2003
last opposition used2023
residual rms (arc-secs)0.80
perturbers coarse indicatorM-v
perturbers precise indicator003Ek
first observation date used2003-08-28.0
last observation date used2023-03-28.0
computer nameMPCLINUX
JD of orbit computation2457694.252707
perihelion JD uncertainty (days)8.2132E-04
argument of perihelion uncertainty (°)3.6771E-04
ascending node uncertainty (°)3.1805E-04
inclination uncertainty (°)6.2996E-06
eccentricity uncertainty 4.9646E-08
perihelion distance uncertainty (AU)2.8275E-07
Minimum Orbit Intersection Distances (in AU)
for orbit epoch: 2460000.5, reference: E2023-F20
Mercury1.78157
Venus1.49977
Earth1.20952
Mars0.8054
Jupiter2.1522
Saturn6.05387
Uranus15.5083
Neptune27.0952

Observations

238 total observations over interval: 2003 08 28.29399 – 2023 03 28.215548
These data are available for download (format description).

Date (UT) J2000 RA J2000 Dec Magn Location Ref
2003 08 28.29399 22 41 51.69 -03 38 29.1 19.4   644 – Palomar Mountain/NEAT MPS 747452
2003 08 28.37009 22 41 47.67 -03 38 49.5 19.8   644 – Palomar Mountain/NEAT MPS 747452
2003 08 28.43265 22 41 44.38 -03 39 05.9 19.7   644 – Palomar Mountain/NEAT MPS 747452
2006 03 05.21366 11 03 55.50 +01 51 06.3 21.1 V 691 – Steward Observatory, Kitt Peak-Spacewatch MPS 747452
2006 03 05.23097 11 03 54.56 +01 51 11.5 21.1 V 691 – Steward Observatory, Kitt Peak-Spacewatch MPS 747452
2006 03 05.24835 11 03 53.62 +01 51 16.7 21.3 V 691 – Steward Observatory, Kitt Peak-Spacewatch MPS 747452
2008 10 29.37717 04 37 25.42 +23 53 11.2 21.3 V 691 – Steward Observatory, Kitt Peak-Spacewatch MPS 747452
2008 10 29.39488 04 37 24.70 +23 53 08.8 21.2 V 691 – Steward Observatory, Kitt Peak-Spacewatch MPS 747452
2008 10 29.41260 04 37 23.98 +23 53 07.1 21.2 V 691 – Steward Observatory, Kitt Peak-Spacewatch MPS 747452
2010 02 14.26924 09 38 13.09 +10 45 46.8 21.2 V G96 – Mt. Lemmon Survey MPS 313820
2010 02 14.27640 09 38 12.73 +10 45 47.9 21.2 V G96 – Mt. Lemmon Survey MPS 313820
2010 02 14.28359 09 38 12.26 +10 45 50.1 21.0 V G96 – Mt. Lemmon Survey MPS 313820
2010 02 14.29074 09 38 11.90 +10 45 51.6 20.8 V G96 – Mt. Lemmon Survey MPS 313820
2010 02 17.17302 09 35 34.51 +10 58 00.4 21.4 V 691 – Steward Observatory, Kitt Peak-Spacewatch MPS 313820
2010 02 17.18328 09 35 33.97 +10 58 03.1 21.2 V 691 – Steward Observatory, Kitt Peak-Spacewatch MPS 313820
2010 02 17.19355 09 35 33.41 +10 58 05.5 21.2 V 691 – Steward Observatory, Kitt Peak-Spacewatch MPS 313820
2012 10 14.46500 02 37 27.11 +18 45 48.8 21.8 V G53 – Alder Springs Observatory, Auberry MPS 438084
2012 10 14.51066 02 37 24.70 +18 45 38.1 21.3 V G53 – Alder Springs Observatory, Auberry MPS 438084
2012 10 15.26344 02 36 47.71 +18 42 40.3 20.8 V 691 – Steward Observatory, Kitt Peak-Spacewatch MPS 438084
2012 10 15.28459 02 36 46.64 +18 42 35.3 21.4 V 691 – Steward Observatory, Kitt Peak-Spacewatch MPS 438084
2012 10 15.30575 02 36 45.54 +18 42 30.0 20.8 V 691 – Steward Observatory, Kitt Peak-Spacewatch MPS 438084
2012 10 17.46017 02 34 55.49 +18 33 36.9 21.1 V G53 – Alder Springs Observatory, Auberry MPS 438084
2012 10 17.47385 02 34 54.75 +18 33 32.9 21.0 V G53 – Alder Springs Observatory, Auberry MPS 438084
2012 10 17.50237 02 34 53.15 +18 33 25.2 21.4 V G53 – Alder Springs Observatory, Auberry MPS 438084
2015 04 18.28483 13 56 37.89 -15 42 23.3 20.1 r G45 – Space Surveillance Telescope, Atom Site MPS 604711
2015 04 18.29359 13 56 37.37 -15 42 19.9 20.2 r G45 – Space Surveillance Telescope, Atom Site MPS 604711
2015 04 18.29942 13 56 37.05 -15 42 17.8 20.1 r G45 – Space Surveillance Telescope, Atom Site MPS 604711
2015 04 18.30535 13 56 36.72 -15 42 16.4 20.4 r G45 – Space Surveillance Telescope, Atom Site MPS 604711
2015 04 18.31070 13 56 36.43 -15 42 15.2 20.6 r G45 – Space Surveillance Telescope, Atom Site MPS 604711
2015 04 19.24845 13 55 46.57 -15 37 28.1 21.2 r G45 – Space Surveillance Telescope, Atom Site MPS 604711
2015 04 19.26547 13 55 45.64 -15 37 22.0 20.8 r G45 – Space Surveillance Telescope, Atom Site MPS 604711
2015 04 19.27173 13 55 45.29 -15 37 20.4 20.4 r G45 – Space Surveillance Telescope, Atom Site MPS 604711
2015 04 19.27706 13 55 45.06 -15 37 18.7 21.0 r G45 – Space Surveillance Telescope, Atom Site MPS 604711
2015 04 20.24582 13 54 53.25 -15 32 17.3 20.4 r G45 – Space Surveillance Telescope, Atom Site MPS 719583
2015 04 20.25172 13 54 52.97 -15 32 15.8 20.6 r G45 – Space Surveillance Telescope, Atom Site MPS 719583
2015 04 20.26869 13 54 52.01 -15 32 09.9 19.8 r G45 – Space Surveillance Telescope, Atom Site MPS 719583
2015 04 20.28746 13 54 50.88 -15 32 04.7 20.7 r G45 – Space Surveillance Telescope, Atom Site MPS 719583
2015 04 21.24577 13 53 59.49 -15 27 01.1 20.5 r G45 – Space Surveillance Telescope, Atom Site MPS 604711
2015 04 21.25204 13 53 59.21 -15 27 00.1 20.5 r G45 – Space Surveillance Telescope, Atom Site MPS 604711
2015 04 21.26484 13 53 58.47 -15 26 55.6 20.5 r G45 – Space Surveillance Telescope, Atom Site MPS 604711
2015 04 21.26898 13 53 58.24 -15 26 55.6 19.8 r G45 – Space Surveillance Telescope, Atom Site MPS 604711
2015 04 21.27545 13 53 57.91 -15 26 53.1 20.3 r G45 – Space Surveillance Telescope, Atom Site MPS 604711
2015 04 21.28172 13 53 57.59 -15 26 50.9 20.3 r G45 – Space Surveillance Telescope, Atom Site MPS 604711
2015 04 22.26625 13 53 04.57 -15 21 36.2 20.5 r G45 – Space Surveillance Telescope, Atom Site MPS 604711
2015 04 22.27194 13 53 04.30 -15 21 34.0 20.5 r G45 – Space Surveillance Telescope, Atom Site MPS 604711
2015 04 22.30254 13 53 02.60 -15 21 24.0 19.3 r G45 – Space Surveillance Telescope, Atom Site MPS 604711
2015 04 22.30813 13 53 02.27 -15 21 21.9 20.1 r G45 – Space Surveillance Telescope, Atom Site MPS 604711
2015 04 22.31406 13 53 01.98 -15 21 19.7 20.1 r G45 – Space Surveillance Telescope, Atom Site MPS 604711
2015 04 23.44967 13 52 00.841 -15 15 11.86 20.4 w F52 – Pan-STARRS 2, Haleakala MPS 604711
2015 04 23.46420 13 52 00.029 -15 15 06.96 19.9 w F52 – Pan-STARRS 2, Haleakala MPS 604711
2015 04 23.47873 13 51 59.220 -15 15 02.31 20.2 w F52 – Pan-STARRS 2, Haleakala MPS 604711
2015 04 25.01357 13 50 37.17 -15 06 33.5 20.4 V W84 – Cerro Tololo-DECam MPS 1284434
2015 04 25.04805 13 50 35.28 -15 06 22.3   W84 – Cerro Tololo-DECam MPS 1284434
2015 04 25.08255 13 50 33.38 -15 06 11.1   W84 – Cerro Tololo-DECam MPS 1284434
2015 04 25.23300 13 50 25.23 -15 05 27.2 20.0 V G96 – Mt. Lemmon Survey MPS 604711
2015 04 25.23977 13 50 24.88 -15 05 24.6 20.0 V G96 – Mt. Lemmon Survey MPS 604711
2015 04 25.24654 13 50 24.47 -15 05 22.6 20.2 V G96 – Mt. Lemmon Survey MPS 604711
2015 04 25.25331 13 50 24.11 -15 05 21.2 19.4 V G96 – Mt. Lemmon Survey MPS 604711
2015 04 25.33195 13 50 19.77 -15 04 54.5 20.4 V I52 – Steward Observatory, Mt. Lemmon Station MPS 604711
2015 04 25.33667 13 50 19.50 -15 04 52.6 20.6 V I52 – Steward Observatory, Mt. Lemmon Station MPS 604711
2015 04 25.34138 13 50 19.23 -15 04 51.3 20.1 V I52 – Steward Observatory, Mt. Lemmon Station MPS 604711
2015 04 25.34610 13 50 18.96 -15 04 50.1 20.4 V I52 – Steward Observatory, Mt. Lemmon Station MPS 604711
2015 04 25.35484 13 50 18.52 -15 04 46.3 20.1 V I52 – Steward Observatory, Mt. Lemmon Station MPS 604711
2015 04 25.35857 13 50 18.29 -15 04 45.6 20.8 V I52 – Steward Observatory, Mt. Lemmon Station MPS 604711
2015 04 25.36230 13 50 18.11 -15 04 44.3 20.2 V I52 – Steward Observatory, Mt. Lemmon Station MPS 604711
2015 04 25.36603 13 50 17.89 -15 04 43.2 20.3 V I52 – Steward Observatory, Mt. Lemmon Station MPS 604711
2015 04 25.39618 13 50 16.19 -15 04 32.7 20.0 V G96 – Mt. Lemmon Survey MPS 604711
2015 04 25.39866 13 50 16.04 -15 04 32.1 20.5 V G96 – Mt. Lemmon Survey MPS 604711
2015 04 25.40113 13 50 15.90 -15 04 31.4 20.3 V G96 – Mt. Lemmon Survey MPS 604711
2015 04 25.40362 13 50 15.78 -15 04 30.0 20.4 V G96 – Mt. Lemmon Survey MPS 604711
2015 05 18.37822 13 32 39.757 -13 00 39.37 20.8 w F52 – Pan-STARRS 2, Haleakala MPS 607384
2015 05 18.39285 13 32 39.244 -13 00 34.91 21.0 w F52 – Pan-STARRS 2, Haleakala MPS 607384
2015 05 18.40744 13 32 38.707 -13 00 30.69 20.7 w F52 – Pan-STARRS 2, Haleakala MPS 607384
2016 09 04.35177 00 35 06.24 +08 20 39.0 20.6 V G96 – Mt. Lemmon Survey MPS 747452
2016 09 04.35751 00 35 06.07 +08 20 37.7 20.2 V G96 – Mt. Lemmon Survey MPS 747452
2016 09 04.36320 00 35 05.84 +08 20 36.7 20.7 V G96 – Mt. Lemmon Survey MPS 747452
2016 09 04.36892 00 35 05.58 +08 20 36.5 20.5 V G96 – Mt. Lemmon Survey MPS 747452
2016 09 12.53479 00 29 29.109 +07 51 04.33 20.3 w F51 – Pan-STARRS 1, Haleakala MPS 727824
2016 09 12.54826 00 29 28.468 +07 51 00.90 20.4 w F51 – Pan-STARRS 1, Haleakala MPS 727824
2016 09 12.56178 00 29 27.825 +07 50 57.41 20.4 w F51 – Pan-STARRS 1, Haleakala MPS 727824
2016 09 22.36588 00 21 30.33 +07 02 45.6 19.8 V G96 – Mt. Lemmon Survey MPS 747452
2016 09 22.37020 00 21 30.10 +07 02 44.7 19.6 V G96 – Mt. Lemmon Survey MPS 747452
2016 09 22.37446 00 21 29.86 +07 02 43.3 19.9 V G96 – Mt. Lemmon Survey MPS 747452
2016 09 22.37876 00 21 29.62 +07 02 41.5 20.1 V G96 – Mt. Lemmon Survey MPS 747452
